Wind_Speed
4 5 10 11 11 12 12 12 11 11 11 12 10 10 11 11 13 12 12 13 13 14 15 15 15 16 16 16 15 15 15 14 14 13 12 12 11 11 11 10 10 10 10 8 7 6 5 4 4 3 1 3 2 2 3 3 4 5 4 2 3 3 4 6 6 8 12 14 14 15 15 15 16 15 15 17 17 16 17 17 16 17 17 18 19
11 9 9 9 8 9 10 10 10 11 12 13 12 12 12 12 14 14 15 14 14 14 15 15 16 17 17 16 16 16 15 15 15 15 14 14 14 13 13 13 12 11 12 11 10 9 8 6 5 5 3 1 1 2 3 3 4 5 5 4 5 6 5 8 9 10 12 15 16 16 16 16 16 15 15 16 17 17 17 18 17 18 18 18 19
11 9 8 8 6 7 9 9 11 12 13 13 13 14 15 15 15 16 17 16 15 16 17 17 18 18 18 18 17 16 16 15 16 16 16 15 15 15 14 14 14 13 14 13 12 12 11 9 7 6 5 3 2 1 2 2 2 4 5 5 6 8 8 9 10 11 13 16 16 16 16 15 16 17 16 17 18 18 19 19 18 18 18 18 18
8 6 6 8 9 9 9 8 10 11 12 12 11 12 15 16 17 18 18 18 18 18 18 19 19 19 20 19 18 18 18 17 17 18 17 16 16 15 15 15 15 14 14 14 13 13 13 10 8 8 7 5 4 3 2 2 2 3 5 6 7 8 8 8 9 11 13 15 15 16 16 17 18 19 18 18 18 17 18 18 18 18 18 18 18
7 6 7 10 11 10 9 8 8 9 10 11 10 11 12 12 13 15 16 17 19 20 20 21 20 20 20 20 20 20 19 19 19 19 18 16 16 16 16 16 15 15 15 14 13 12 13 11 9 8 8 7 5 4 4 3 3 3 4 6 7 8 9 9 10 12 14 16 18 18 18 19 19 19 18 18 19 19 18 18 18 18 18 18 19
6 5 5 6 6 6 6 7 7 8 10 11 12 11 11 10 10 12 14 16 18 19 19 17 16 17 17 17 19 20 21 20 20 19 18 17 17 16 16 16 15 15 15 14 13 13 12 11 10 9 8 7 6 5 5 4 3 4 5 6 7 9 10 11 12 13 15 17 18 19 20 20 20 20 19 18 19 20 19 18 18 18 19 20 20
8 7 7 6 5 4 3 2 4 6 8 10 11 11 10 11 14 18 20 21 20 19 18 15 15 17 18 18 20 22 21 19 18 18 19 18 17 17 16 16 15 15 15 14 13 13 12 11 10 9 9 8 7 6 5 5 4 4 5 6 7 9 10 11 12 13 15 16 17 18 18 19 19 20 19 17 19 20 19 20 20 19 18 17 16
7 7 5 5 5 4 3 2 1 1 3 6 8 8 8 12 18 24 24 23 23 22 21 20 19 19 21 23 23 21 19 17 17 19 19 19 19 18 18 17 16 15 14 14 13 12 12 11 10 9 9 9 8 8 7 7 6 7 9 9 9 10 11 12 13 13 15 16 17 17 18 18 19 19 18 17 17 17 16 17 18 18 17 17 19
5 5 4 4 3 2 1 1 1 1 3 4 6 6 8 12 16 19 20 21 21 21 22 22 21 21 23 24 23 19 17 18 22 22 21 19 19 18 18 18 16 15 14 13 13 12 11 11 10 9 10 10 11 11 10 9 10 11 11 11 11 10 11 12 12 13 14 15 16 16 16 17 17 17 17 16 15 17 18 19 20 21 22 23 24
4 3 2 2 2 1 1 1 2 3 4 5 6 7 8 11 13 13 13 15 16 18 20 21 21 21 22 23 22 19 18 21 26 27 24 20 18 18 19 19 17 14 14 13 12 12 11 10 10 11 12 13 13 13 12 12 11 11 10 10 11 11 12 13 13 14 14 15 15 16 16 16 17 17 18 18 19 20 20 20 20 21 21 21 21
2 1 1 1 1 2 3 3 3 3 4 5 5 6 7 9 11 11 11 11 12 14 16 17 19 20 20 21 21 20 21 23 25 27 26 22 19 18 18 18 16 14 14 14 13 12 11 10 10 11 12 12 12 11 10 10 10 11 12 12 12 12 13 14 15 15 15 15 16 16 16 17 18 18 18 19 19 19 19 19 19 19 18 15 14
1 1 2 3 3 3 3 3 4 4 4 5 5 6 7 7 9 10 10 10 11 12 13 14 16 17 18 19 20 21 23 24 23 24 24 22 20 18 16 16 16 14 14 13 12 12 11 10 10 10 9 9 9 9 9 11 12 14 14 14 13 13 14 15 16 17 17 17 17 17 17 19 20 20 21 20 20 21 22 22 20 20 19 16 15
1 1 2 3 4 4 4 5 5 5 5 5 6 7 7 8 9 10 10 10 11 13 15 15 16 17 17 18 19 19 20 23 22 22 25 23 19 17 15 13 14 14 13 13 12 11 10 10 10 9 8 8 9 10 10 11 12 12 12 12 13 14 15 16 18 20 21 21 20 19 18 19 20 21 21 21 22 23 21 20 18 19 20 19 19
2 2 2 4 4 5 5 6 6 6 6 6 7 7 8 9 9 10 11 12 12 13 14 16 17 17 18 18 19 17 17 18 18 21 26 24 18 17 15 12 13 14 12 12 12 11 10 9 8 8 8 9 9 9 9 9 9 9 9 10 12 13 14 16 17 19 22 24 25 25 23 22 22 23 23 22 22 20 17 17 18 20 22 23 25
3 3 4 4 5 6 6 6 6 6 6 7 8 9 10 10 11 11 11 12 13 13 14 14 15 17 18 19 19 18 17 16 16 19 23 22 19 19 17 14 15 13 12 12 12 11 10 8 8 9 9 10 11 11 11 11 12 12 13 13 14 15 16 17 18 19 20 22 24 25 25 24 24 24 23 22 22 22 22 23 23 24 26 28 30
5 5 5 5 7 7 7 7 6 7 7 8 9 10 11 11 11 11 12 13 13 14 15 16 16 16 17 18 18 17 14 14 17 19 20 20 20 19 17 17 16 14 11 11 10 9 8 8 9 10 10 11 12 12 12 13 15 16 16 16 16 17 18 17 18 18 19 21 22 23 24 24 24 25 25 25 27 28 30 30 28 26 27 27 27
6 6 6 7 8 8 8 8 8 8 9 9 10 11 11 11 11 12 12 13 13 14 15 16 17 17 17 16 16 15 12 12 15 17 18 20 20 17 14 14 14 11 8 8 8 8 8 9 10 10 10 11 13 14 14 16 18 18 17 17 17 17 17 17 17 18 19 20 21 22 23 24 25 26 28 29 30 30 29 27 24 23 23 21 20
7 8 8 8 9 9 9 10 10 10 10 10 11 11 11 12 12 12 13 14 14 14 15 16 16 15 14 13 13 13 12 12 14 17 19 20 19 15 11 10 8 6 6 6 7 7 8 9 10 10 11 13 15 17 17 17 17 15 15 15 16 17 17 18 18 18 18 18 20 21 22 22 22 22 22 24 25 27 29 29 25 22 21 20 19
9 9 10 10 10 10 11 11 11 11 11 12 13 12 12 13 13 13 13 13 13 14 14 13 9 5 4 7 9 10 11 14 17 19 19 18 16 13 10 8 5 3 3 3 3 4 5 7 8 10 12 15 17 16 16 14 13 12 13 14 15 17 18 17 17 18 20 22 23 24 24 25 25 25 24 23 22 22 25 28 27 24 22 21 21
11 11 11 11 11 12 12 12 12 13 13 13 12 12 13 13 13 13 13 12 13 13 9 4 1 3 4 5 6 8 12 17 18 19 19 18 16 14 12 9 6 3 1 0 2 5 6 8 11 12 12 14 15 13 12 12 12 13 14 15 17 18 19 21 22 24 26 28 28 29 29 28 28 27 27 27 26 24 24 26 26 26 25 24 22
12 13 13 13 13 13 13 13 13 13 13 13 12 12 12 12 12 12 12 12 13 9 3 2 5 7 7 6 8 11 15 18 18 18 18 17 16 14 13 9 6 2 1 2 5 7 8 10 13 12 9 9 10 10 11 12 14 16 18 20 21 22 23 25 26 26 26 27 27 26 25 25 24 24 24 24 25 25 25 26 26 26 26 26 24
14 14 14 14 14 15 15 15 15 15 15 14 14 13 12 12 12 12 11 12 10 4 4 6 8 10 10 9 11 15 16 17 18 18 17 15 14 12 9 6 2 2 4 6 7 8 8 10 11 9 7 8 11 12 15 18 20 22 22 21 20 20 20 22 23 22 22 21 21 20 19 19 20 21 21 22 22 23 23 24 24 25 26 27 25
15 15 15 15 16 16 16 15 15 15 16 16 15 15 14 14 13 11 12 13 9 3 7 9 10 11 12 12 14 16 17 16 16 16 14 12 9 7 5 3 3 4 5 7 8 8 8 9 10 10 11 14 17 18 20 22 22 20 18 16 17 17 18 20 21 21 20 20 19 19 18 18 19 20 20 21 22 22 23 23 23 24 25 26 26
17 17 17 16 16 15 14 14 14 14 15 16 16 16 16 15 13 12 13 13 8 7 9 10 12 13 13 14 15 16 16 14 12 11 9 7 5 4 3 2 2 2 3 4 5 6 8 9 12 14 17 20 21 20 19 17 16 14 14 15 16 18 19 21 21 20 19 19 19 19 18 18 19 20 20 21 22 22 23 24 25 24 24 24 25
17 17 17 16 16 15 14 15 15 15 16 16 16 17 16 13 12 12 11 9 7 9 10 10 11 13 13 14 15 16 15 13 11 9 6 4 4 4 3 2 1 1 3 5 6 7 8 11 14 17 19 20 19 18 16 13 13 14 15 16 18 19 20 21 20 19 18 18 18 19 19 19 20 21 22 22 23 23 24 25 25 25 25 25 26
17 16 17 17 17 17 17 17 17 17 17 17 17 17 15 11 8 8 7 6 9 12 12 11 11 13 14 14 15 15 15 13 10 8 7 6 5 4 2 0 1 3 5 6 7 8 10 13 15 16 17 16 16 16 16 15 14 15 15 16 16 17 18 18 18 18 18 19 19 20 21 22 23 23 23 23 23 23 23 23 23 23 24 25 25
17 17 17 18 18 18 19 18 17 17 17 17 17 14 11 6 5 6 8 9 11 12 12 13 14 15 15 14 15 15 15 13 10 8 7 5 2 1 1 2 3 4 5 6 8 11 13 13 13 12 12 13 13 14 14 13 13 14 14 15 15 16 17 18 18 19 20 20 21 21 22 22 22 22 22 22 23 23 22 22 22 22 22 23 24
16 16 17 17 17 18 19 18 18 17 16 14 11 7 4 4 5 7 9 12 14 14 14 15 16 16 16 16 16 15 13 12 11 9 8 5 4 3 2 1 2 2 4 8 11 11 10 10 10 11 11 12 13 13 12 12 13 14 15 16 17 18 18 19 20 21 21 22 22 22 22 22 21 20 20 20 21 21 21 21 22 21 21 21 21
14 15 16 17 18 19 20 19 19 18 12 6 4 5 5 6 9 10 10 13 16 17 17 17 16 17 18 18 18 17 16 14 12 9 7 5 4 4 2 0 2 5 8 11 11 9 8 8 9 11 12 12 13 14 14 14 15 16 16 17 18 19 19 19 20 21 22 22 23 23 23 23 23 23 23 23 23 23 23 23 23 23 22 21 20
13 14 16 17 17 17 16 16 16 12 8 10 11 10 9 8 10 11 12 14 16 18 19 18 16 16 16 16 16 18 18 15 11 8 6 4 3 2 3 4 5 7 10 11 9 7 7 8 10 12 13 14 14 14 14 15 16 16 17 18 20 20 20 20 20 21 21 22 23 24 24 24 25 25 24 24 24 24 24 24 24 24 23 22 21
12 13 13 13 14 14 15 15 11 8 12 15 17 18 18 16 14 14 16 17 17 17 18 18 17 16 16 17 18 18 16 14 11 8 6 5 5 6 6 6 6 7 9 10 9 8 8 10 12 12 13 13 13 13 14 15 15 16 18 19 20 20 20 21 21 21 22 23 23 24 25 25 24 24 24 24 24 25 24 24 24 24 23 23 23
9 10 11 11 12 14 15 13 11 14 16 18 21 24 26 25 23 20 18 18 18 18 19 19 18 17 17 19 20 18 15 13 11 10 10 9 9 8 6 4 3 3 4 6 8 8 8 10 12 13 13 14 14 14 15 16 16 17 18 19 20 21 22 23 23 24 24 24 25 25 26 26 25 25 25 25 25 24 24 23 23 23 23 24 24
4 4 4 5 5 5 6 10 15 19 20 20 21 22 24 25 25 24 23 23 22 22 22 21 20 19 17 16 16 16 14 13 13 13 13 11 8 5 2 2 3 3 4 6 7 7 8 11 13 13 14 14 15 15 17 17 17 18 19 20 21 22 23 24 25 25 26 26 27 27 27 27 27 26 26 25 25 24 24 23 23 23 23 23 23
4 5 6 5 6 9 13 17 19 21 21 21 21 20 21 21 23 24 24 23 22 21 20 19 17 16 16 15 14 13 13 13 13 13 12 10 9 8 8 9 5 4 5 7 8 8 10 14 14 14 14 14 15 17 18 18 19 20 21 22 22 24 25 26 26 26 26 27 27 28 28 27 27 27 26 26 25 24 24 24 23 22 22 22 22
7 7 8 10 12 14 16 18 20 20 21 21 22 22 21 21 21 22 21 20 19 18 16 15 13 13 13 12 12 11 11 11 11 11 9 8 8 8 10 10 8 3 3 6 7 9 13 14 13 13 14 14 16 17 18 19 20 21 22 23 24 26 27 27 27 27 27 27 27 27 28 28 27 28 27 27 26 24 24 23 23 23 23 23 23
11 11 13 14 15 16 19 20 19 19 18 19 20 21 20 18 18 19 18 18 17 16 14 13 11 10 9 9 9 8 8 8 8 7 6 4 4 6 6 7 9 9 8 9 10 12 12 12 12 13 14 15 16 17 18 20 21 22 23 24 26 27 27 27 28 28 28 28 28 28 28 28 28 28 27 26 26 25 25 25 24 24 24 24 23
8 9 12 14 15 16 17 17 16 16 17 18 18 17 16 16 16 16 16 15 15 15 14 14 13 11 9 7 6 6 5 5 5 4 2 1 3 6 6 7 9 11 10 11 11 11 11 11 12 13 14 15 16 17 19 21 22 23 25 27 28 28 28 29 29 29 29 29 29 28 28 28 27 27 27 26 25 25 25 25 25 25 26 26 25
5 4 7 11 13 15 15 15 17 19 19 17 15 14 14 15 15 15 15 15 15 15 15 15 14 12 10 8 5 4 2 3 3 2 1 1 3 6 8 8 9 10 10 11 11 11 11 12 12 13 15 16 17 18 20 22 24 25 27 28 28 28 29 29 29 29 28 28 28 28 28 28 27 27 26 26 25 25 25 25 25 24 25 25 24
3 5 8 10 11 14 17 19 22 21 18 15 14 13 14 15 15 14 13 13 15 14 13 13 11 9 9 8 5 2 3 6 6 4 1 3 6 8 9 9 10 10 11 11 11 11 11 12 13 14 16 17 18 20 22 23 26 27 28 28 28 29 29 28 28 28 28 28 28 29 28 28 28 27 26 26 25 25 25 25 25 25 24 23 23
5 9 11 9 8 13 17 18 17 16 14 13 13 13 12 12 14 14 12 12 13 15 16 16 14 11 8 6 5 3 1 3 4 5 6 8 10 9 9 10 10 10 11 11 11 11 11 12 13 15 16 17 19 21 23 25 27 29 29 28 28 29 29 29 28 29 29 29 29 29 28 28 27 26 25 25 25 26 25 25 25 25 24 23 22
10 11 10 7 8 12 12 10 9 10 11 11 10 10 9 8 9 10 8 9 15 19 19 17 16 13 9 6 5 5 3 5 10 12 10 10 9 8 9 10 11 11 11 11 11 11 11 12 14 15 16 18 21 23 25 27 28 29 28 28 28 29 29 29 29 29 29 29 29 28 28 27 26 25 25 26 26 26 25 25 25 24 22 20 20
13 10 8 9 12 12 9 8 10 12 13 12 10 12 14 15 16 17 17 18 18 18 16 15 15 15 13 10 9 7 6 8 11 11 10 9 8 8 9 10 10 11 10 10 11 11 11 13 14 15 17 19 22 24 26 28 29 29 29 28 28 29 29 29 29 29 29 28 28 28 27 27 26 26 26 26 25 24 23 23 22 21 19 17 17
13 10 8 9 11 11 10 11 13 14 13 12 13 15 16 17 17 18 17 16 16 15 14 12 10 10 11 11 9 8 9 11 11 10 9 8 8 9 9 9 9 9 9 10 11 11 11 12 13 15 17 20 22 23 26 29 30 30 29 29 29 29 30 30 30 30 29 28 28 28 27 26 26 25 24 24 22 21 20 19 17 16 16 15 14
14 10 7 6 9 14 14 13 14 15 14 13 14 15 16 16 16 16 15 14 13 11 11 10 7 5 7 9 9 10 11 12 11 9 8 8 9 9 9 8 8 8 9 10 10 11 12 12 13 16 19 22 23 24 27 30 31 30 29 29 29 30 30 30 30 30 29 28 27 26 25 25 24 22 21 21 19 18 17 16 13 12 13 13 12
13 9 7 4 8 13 14 13 14 14 13 13 14 14 14 14 14 13 12 12 11 10 9 8 7 6 7 8 9 10 11 10 9 8 7 8 8 8 8 9 8 8 9 10 10 11 12 13 15 18 20 22 24 26 28 31 32 31 30 29 29 30 30 30 29 28 26 25 24 24 23 22 21 20 19 18 16 15 14 13 11 10 10 11 11
8 5 4 7 11 14 14 15 14 14 13 13 13 13 13 13 14 14 13 11 10 9 8 8 8 10 10 10 9 10 11 9 8 7 7 7 7 7 8 9 8 9 9 9 10 11 12 13 16 18 20 22 25 27 29 31 33 33 31 30 30 30 30 29 28 25 23 22 21 21 20 19 18 17 17 15 13 11 10 9 7 6 7 8 9
9 9 10 13 15 15 16 15 14 14 14 14 13 12 12 12 12 13 13 11 10 9 9 9 10 11 12 10 10 10 11 9 7 7 7 7 7 7 7 8 8 9 9 10 11 11 12 14 16 18 19 22 24 26 28 32 34 34 32 31 31 31 30 28 26 24 22 20 19 19 18 17 16 16 16 14 11 9 7 6 4 3 4 6 7
13 14 14 14 14 15 15 14 13 13 13 13 12 12 12 11 11 12 11 10 10 9 9 9 9 10 10 10 9 9 9 8 7 7 7 7 7 7 7 8 9 9 9 10 11 11 12 14 16 17 19 22 24 26 29 32 34 34 33 32 31 31 29 27 25 23 21 19 19 18 17 16 16 16 16 15 12 9 7 6 4 3 4 7 9
15 15 16 15 15 14 13 13 12 12 11 11 12 12 12 12 12 11 11 10 10 10 10 11 11 11 10 10 9 9 8 8 7 7 6 6 6 7 7 8 8 8 9 11 11 11 13 15 16 17 19 22 23 25 30 33 34 34 33 31 30 30 29 27 25 23 21 20 19 19 19 18 17 16 17 17 15 12 11 10 9 9 10 11 13
18 16 16 15 14 14 13 13 13 11 11 11 11 12 12 12 12 12 11 10 11 11 11 11 11 11 10 10 9 8 8 7 6 6 6 6 7 7 7 8 8 9 10 11 11 11 14 18 17 17 18 21 22 26 32 34 33 32 32 30 28 29 29 28 26 24 22 21 20 19 20 20 19 18 17 18 18 16 15 14 14 14 14 14 15
19 17 16 15 14 14 13 13 13 12 12 12 12 12 12 12 12 12 11 11 10 10 10 10 9 9 9 9 8 7 7 6 6 6 6 6 7 7 7 8 8 9 9 10 10 11 15 19 19 17 18 20 21 26 32 33 31 31 31 30 27 27 28 28 28 26 23 21 20 20 19 20 20 20 19 18 18 18 17 16 15 15 16 15 15
Wind_Direction
227 179 153 152 156 164 174 182 186 195 196 194 200 200 201 211 217 226 236 230 222 221 218 215 218 219 216 214 214 211 207 202 200 199 196 198 200 199 199 192 186 189 186 178 176 180 179 170 180 202 117 71 55 353 341 329 310 302 288 285 301 287 285 294 291 294 301 303 306 309 309 307 306 303 301 298 296 295 294 291 288 286 285 285 285
170 167 151 144 147 158 173 188 195 203 206 204 211 213 213 220 221 227 238 239 234 230 225 222 223 225 223 221 220 217 212 209 206 203 203 205 203 203 204 197 194 197 193 187 186 185 184 185 181 180 174 164 259 323 337 342 342 328 317 317 316 311 306 304 305 305 302 303 304 302 300 300 300 300 298 296 296 297 296 293 290 286 285 286 286
144 153 157 159 164 165 172 190 202 208 209 208 214 218 221 225 225 227 233 235 238 239 233 229 227 227 227 225 224 222 217 214 212 208 208 211 210 207 207 202 200 203 199 193 194 190 187 190 188 183 191 202 221 258 299 305 320 326 323 322 315 306 298 293 291 288 287 292 296 298 299 301 300 299 297 294 294 293 292 291 288 286 285 284 285
147 156 171 194 212 205 191 201 216 221 217 211 218 228 232 233 229 231 234 233 236 240 238 235 231 231 231 228 226 226 222 218 216 213 212 216 218 214 211 208 206 210 205 199 200 196 188 188 190 193 198 196 204 229 247 262 277 301 311 311 308 306 306 300 291 286 286 291 294 296 298 298 297 297 296 295 293 292 293 293 291 289 288 286 285
152 167 178 190 203 207 207 216 228 237 233 227 235 244 245 247 241 236 238 242 244 244 243 242 238 235 234 231 231 231 229 226 221 215 213 217 222 222 219 214 212 215 212 205 205 200 188 187 192 193 195 194 201 217 223 229 253 281 295 298 300 303 303 301 298 295 294 294 294 294 295 294 294 293 293 294 293 291 290 289 288 289 289 288 285
95 103 128 151 168 183 198 213 223 230 228 224 230 236 240 254 260 246 237 240 247 249 248 253 263 263 256 250 247 242 236 233 228 221 217 219 222 225 225 222 218 218 216 208 207 201 188 188 194 195 196 200 203 208 219 233 250 268 282 291 294 297 297 296 295 292 290 289 289 290 291 291 290 289 289 291 291 291 291 290 289 288 286 286 285
87 82 86 104 122 135 146 199 235 237 234 229 234 239 239 244 251 247 237 233 240 251 254 256 266 269 263 258 258 257 251 243 237 233 226 222 222 223 226 227 224 222 218 210 207 202 194 192 196 198 200 203 209 215 222 226 233 252 270 281 286 291 294 294 294 291 290 289 288 288 288 289 288 286 288 289 286 287 289 288 287 287 287 287 289
91 90 86 94 102 114 127 132 135 231 257 245 244 249 247 242 242 244 245 241 242 252 255 249 246 247 245 242 246 259 269 262 250 246 239 229 224 221 221 223 224 223 218 211 207 201 197 197 197 199 204 209 214 214 210 216 239 260 266 269 275 285 292 293 293 291 289 287 286 286 288 290 289 289 290 289 284 284 288 289 292 297 299 295 294
85 91 98 101 93 89 138 155 177 253 270 256 247 241 238 242 243 245 251 253 251 253 254 250 248 247 245 243 243 251 263 256 245 246 248 238 225 220 219 217 218 220 215 209 206 200 196 196 198 204 211 215 215 213 219 242 268 276 276 274 273 276 284 288 289 291 292 291 290 292 293 292 291 295 300 300 298 298 300 300 299 298 298 295 291
68 68 77 88 78 336 296 284 255 258 262 258 256 247 234 235 240 246 257 263 260 257 254 251 251 250 249 249 249 246 245 244 239 242 249 243 230 227 222 212 209 213 211 206 202 200 198 199 204 213 219 224 230 236 248 263 273 276 276 278 276 274 276 280 282 286 291 292 292 295 296 293 293 298 304 305 306 306 305 304 299 293 291 288 286
57 32 2 359 318 286 288 290 280 277 278 273 270 267 257 247 242 242 250 261 264 262 259 255 254 257 256 254 253 250 247 247 244 244 244 238 234 236 223 204 200 206 207 204 200 200 200 201 212 223 229 236 246 257 271 278 281 284 286 285 282 276 274 274 275 278 280 282 284 287 289 290 293 298 303 305 308 312 314 315 313 308 301 293 289
8 341 327 313 302 296 297 295 290 288 289 290 288 285 283 279 270 261 254 253 254 254 256 256 254 256 257 255 253 251 248 246 245 242 237 233 239 242 220 195 194 200 201 199 196 198 202 206 216 225 230 238 248 262 277 283 285 288 291 290 286 280 274 271 271 272 272 272 274 275 278 283 290 294 297 301 308 313 314 313 314 314 311 304 301
262 268 285 297 301 300 297 291 287 285 284 288 292 293 289 285 285 284 281 274 263 250 247 249 250 249 251 252 252 251 247 244 244 242 235 233 236 231 211 190 186 190 194 194 192 198 205 209 216 223 231 244 254 264 272 277 283 291 295 291 285 283 280 276 273 272 270 267 265 266 270 276 282 286 287 292 301 306 308 307 307 310 312 309 305
261 254 274 285 290 294 293 289 287 287 288 288 289 287 283 281 282 284 284 283 279 268 258 252 248 248 249 250 254 257 250 243 247 245 236 230 223 213 204 191 183 185 192 194 196 203 208 211 217 228 242 254 261 265 266 267 273 286 296 296 291 290 288 286 284 280 274 268 264 264 268 271 273 277 281 286 291 294 298 302 303 303 304 301 296
296 293 288 289 291 291 286 280 282 285 286 287 285 280 277 278 280 278 277 277 278 279 275 267 259 253 249 248 252 257 252 242 241 240 233 225 217 207 198 186 184 188 193 196 199 205 213 220 231 241 252 260 262 261 262 262 264 273 284 290 289 287 285 286 287 286 283 278 274 272 272 273 274 274 275 276 276 279 286 291 294 296 296 293 290
292 288 286 287 288 290 287 282 282 282 282 281 280 280 277 276 276 274 274 274 273 275 276 274 270 262 254 249 251 254 250 239 234 232 226 217 208 201 189 178 179 185 191 200 207 213 223 233 241 249 258 263 263 263 264 266 271 279 287 288 286 284 283 284 283 280 281 282 281 280 279 277 276 274 273 274 277 283 288 287 287 287 287 286 284
283 287 293 292 292 294 292 288 283 280 280 278 277 278 279 279 279 276 275 274 272 272 273 272 271 267 259 250 246 245 240 229 221 215 207 200 193 187 178 174 177 186 201 215 220 226 237 243 247 252 258 263 268 271 272 274 277 282 286 285 285 285 286 288 287 284 282 282 282 283 283 282 280 278 278 278 280 284 284 281 281 282 279 276 275
293 296 296 296 298 299 295 292 289 285 282 280 280 281 279 278 277 275 275 276 274 275 278 278 277 274 260 240 231 231 222 206 196 190 188 189 186 179 173 175 182 200 219 223 225 236 252 260 260 261 262 267 272 275 275 276 277 278 279 282 284 286 288 292 293 291 288 284 283 281 280 280 282 283 284 283 281 279 274 271 274 276 272 270 272
287 288 290 293 295 294 292 290 287 283 280 277 276 278 279 278 276 274 274 276 277 277 280 281 282 279 238 208 208 211 195 178 177 180 181 182 179 170 162 163 168 183 209 221 238 260 276 291 293 286 274 269 271 270 268 269 270 272 276 282 286 288 290 292 291 291 291 289 288 286 284 285 286 287 287 286 284 281 273 270 271 269 265 267 271
275 279 283 286 286 284 283 281 279 278 274 270 269 270 271 270 270 271 272 272 275 279 281 279 151 115 133 160 172 179 174 167 170 177 179 179 178 169 154 144 136 129 143 274 299 291 293 300 298 291 279 270 269 270 270 273 277 279 282 284 285 286 287 287 287 290 293 293 291 290 288 289 289 288 286 284 282 279 274 271 269 264 261 264 267
274 276 278 279 279 279 279 278 279 280 278 274 270 268 268 268 268 271 273 272 273 273 261 142 131 124 129 146 152 158 165 166 167 173 176 175 175 169 154 139 129 132 201 264 280 286 294 297 292 286 279 273 272 277 283 288 293 295 295 293 291 290 291 292 293 295 296 294 292 290 288 289 289 288 287 285 282 278 274 270 268 264 261 261 262
275 275 275 276 278 281 282 281 280 280 277 274 269 265 265 267 270 273 275 277 275 251 145 138 136 128 128 140 148 153 160 165 167 171 173 172 171 172 166 157 168 238 258 270 279 284 293 298 292 283 283 292 295 296 300 304 306 306 305 304 303 302 302 300 300 300 299 297 295 293 291 291 290 288 287 284 282 280 278 275 272 269 267 265 264
278 277 276 276 278 279 278 277 276 276 275 271 264 259 257 259 265 270 270 273 269 195 139 132 127 124 125 133 146 154 159 164 169 173 175 175 174 179 184 189 220 246 262 277 280 277 283 294 296 294 299 306 308 307 308 309 309 309 309 309 308 307 303 299 297 295 293 292 290 289 288 286 284 284 284 282 282 281 281 280 278 275 271 270 270
280 279 277 276 276 276 276 277 276 275 277 275 269 265 260 255 254 253 255 259 242 164 139 133 130 128 128 132 143 153 157 160 166 168 166 164 164 170 180 182 214 258 291 311 303 287 283 287 289 290 294 298 301 305 307 307 306 308 310 309 307 304 298 294 291 288 285 284 281 279 278 277 276 276 276 277 279 280 282 283 283 282 279 276 275
281 280 282 282 282 282 284 286 285 283 281 279 277 277 272 260 249 246 250 250 213 163 147 144 141 138 137 138 143 151 157 158 156 150 142 138 137 132 119 102 80 359 343 340 328 310 296 286 282 284 289 295 301 305 304 302 307 312 312 311 309 305 300 294 287 282 280 279 278 276 275 274 274 275 277 277 276 276 277 280 282 283 284 283 280
284 285 286 287 288 287 285 285 285 284 282 278 276 276 275 268 257 252 242 215 186 168 157 154 149 143 140 141 144 152 158 156 151 145 142 139 138 132 122 51 296 302 314 323 322 310 296 290 291 296 301 305 306 302 295 295 304 312 315 315 312 308 304 296 287 284 283 283 282 279 278 278 278 278 278 278 276 275 275 275 275 276 278 280 280
288 287 285 284 284 283 282 282 280 280 281 280 277 275 277 276 259 239 213 185 170 163 161 161 156 148 143 143 147 155 161 162 159 157 153 147 139 188 278 312 314 303 306 317 318 312 308 311 319 324 324 320 316 311 306 305 311 318 322 322 319 317 313 306 301 299 298 295 292 288 286 286 284 281 279 277 277 278 277 274 273 272 273 273 273
286 289 290 287 283 280 281 282 282 281 280 279 274 266 259 228 196 188 186 179 172 169 168 164 157 151 148 151 154 157 158 160 160 161 166 165 143 135 146 66 34 18 347 336 330 329 336 346 347 340 328 323 326 330 329 326 326 327 326 323 319 316 313 310 307 305 302 300 299 298 298 297 294 291 289 286 284 284 283 280 277 275 273 271 268
289 289 288 284 282 281 279 278 279 278 270 244 183 153 152 168 173 171 176 183 181 174 165 158 154 153 153 158 160 152 140 137 141 146 155 157 141 136 157 154 38 31 13 358 354 4 13 358 339 332 334 336 340 341 339 335 332 327 322 317 313 309 307 305 302 301 301 301 301 301 301 300 298 296 294 291 288 287 286 283 281 279 277 273 268
298 290 285 283 282 282 280 279 278 267 218 163 145 136 132 147 166 167 162 164 166 163 155 147 145 150 152 154 156 149 135 125 122 121 120 115 101 89 83 74 57 39 27 18 11 4 349 337 336 341 345 345 340 336 334 331 326 321 315 310 306 303 301 300 299 299 301 302 301 300 299 298 296 294 291 288 285 284 282 281 279 277 274 272 269
303 296 294 291 285 282 281 277 261 215 175 158 146 132 120 117 125 133 135 136 141 148 150 146 145 150 150 141 135 131 123 113 106 97 87 84 87 89 88 85 71 47 31 24 15 351 328 334 346 347 343 340 335 331 330 326 319 315 312 308 305 305 304 303 302 301 301 300 298 297 296 294 292 290 288 286 284 282 280 278 275 272 269 268 268
306 299 298 292 281 273 267 247 199 163 152 147 140 131 122 113 109 110 115 120 127 138 145 144 139 138 137 131 124 117 111 105 95 84 83 91 98 102 106 102 75 38 9 6 359 340 331 345 352 349 343 341 337 334 332 327 321 317 315 311 310 309 308 307 305 304 302 300 297 296 295 293 291 289 287 285 284 282 280 276 273 271 269 266 265
330 332 324 301 271 237 195 158 139 131 129 129 126 125 122 116 111 110 110 112 116 123 128 129 126 123 120 118 117 115 109 100 89 85 88 90 84 77 51 341 311 290 307 327 318 312 341 4 1 350 342 338 336 336 333 327 323 320 316 313 311 309 307 307 306 304 301 299 296 295 294 293 291 289 287 285 283 280 278 275 273 270 268 266 264
69 73 67 66 83 100 110 114 116 118 120 120 118 117 117 114 111 109 107 106 106 109 111 114 117 117 116 114 114 113 108 99 92 91 89 76 57 36 11 354 330 270 273 291 291 311 358 9 358 344 340 338 338 337 331 325 323 320 316 314 311 309 309 308 306 303 300 299 296 294 293 292 291 289 287 285 283 280 277 274 271 267 264 263 263
92 88 85 82 83 87 94 102 109 112 112 111 111 112 111 109 110 111 111 110 109 110 112 114 114 115 117 116 115 116 113 105 99 94 89 76 57 41 23 13 15 15 302 306 323 352 5 0 346 341 342 340 336 332 326 322 321 318 315 314 312 310 310 309 305 303 300 299 297 294 292 291 290 288 286 283 280 278 275 272 270 266 262 260 260
101 99 100 96 90 92 95 98 100 103 106 110 113 115 118 119 122 124 124 124 123 123 126 130 131 131 129 122 116 118 118 114 107 99 95 83 44 28 12 3 16 28 18 360 1 3 357 349 345 346 343 335 330 327 323 321 320 317 315 313 311 309 308 306 305 303 301 299 298 296 294 292 290 288 286 282 278 276 274 271 270 266 262 260 259
104 105 112 109 106 109 110 108 107 110 116 121 123 124 126 127 128 130 131 134 137 142 146 151 154 155 151 136 121 118 126 135 135 119 99 46 356 356 347 350 13 25 16 4 3 360 351 349 350 346 338 332 328 326 324 323 321 318 317 315 312 309 307 306 305 303 301 299 298 297 294 293 291 289 287 283 279 277 274 272 270 268 264 261 258
84 94 127 135 133 130 126 123 126 130 134 137 138 138 138 140 143 145 146 150 156 159 161 164 165 162 154 145 127 116 153 229 240 240 258 318 6 12 10 13 22 22 9 1 3 2 356 353 350 344 339 334 330 328 327 325 323 322 320 318 315 312 310 308 306 304 302 300 299 298 296 294 292 291 288 284 281 279 277 274 272 268 265 261 256
77 100 136 150 151 149 147 145 146 150 151 148 145 145 147 150 150 146 150 166 176 170 154 145 141 137 140 148 149 159 243 273 279 270 286 29 41 39 27 19 16 12 5 3 5 3 357 352 349 345 340 335 332 330 330 328 326 324 322 320 318 315 313 310 307 305 303 301 300 299 297 295 293 292 289 285 282 279 277 276 273 270 265 259 254
104 120 134 137 136 146 154 158 160 160 153 145 143 144 148 158 164 165 171 178 166 141 119 107 103 102 115 137 143 148 220 327 17 57 58 43 41 36 22 14 12 11 10 8 5 1 355 351 350 345 339 336 335 334 333 331 328 325 322 320 319 316 313 311 308 305 303 302 301 300 298 296 295 293 290 287 285 282 278 277 276 273 267 259 254
126 133 140 131 124 136 144 147 144 129 113 115 128 128 117 116 130 137 127 102 101 104 100 92 83 73 69 79 97 107 88 44 51 60 54 42 37 27 16 14 17 17 15 8 3 359 355 353 350 344 340 338 337 336 336 335 331 326 322 320 319 318 315 313 311 309 306 304 302 301 300 299 298 296 292 291 290 286 282 280 278 273 265 258 254
137 139 133 126 130 135 129 115 110 97 82 76 80 83 80 76 75 78 73 66 72 84 88 83 72 60 57 69 86 91 78 63 59 56 46 38 33 22 14 15 16 16 13 7 2 359 355 352 349 345 342 340 338 337 339 337 333 329 326 321 319 319 318 316 315 314 311 308 305 304 304 304 303 301 298 296 294 290 287 285 280 269 258 252 250
140 139 134 134 133 126 112 104 104 98 89 82 74 73 77 76 72 72 73 68 68 73 77 79 76 67 68 76 76 68 65 65 61 55 44 34 29 25 21 15 11 12 12 6 0 358 355 352 348 344 341 338 336 336 339 339 337 333 329 325 323 323 321 319 319 318 316 313 312 311 311 311 310 307 304 302 300 297 295 292 282 264 250 246 243
138 141 155 152 122 110 105 103 102 99 96 89 81 79 81 80 76 77 78 75 74 74 73 72 71 71 79 80 71 66 66 62 56 54 46 31 27 29 19 5 3 13 14 5 358 357 356 351 346 342 341 340 338 337 340 343 343 340 335 331 329 328 326 324 324 324 323 322 321 321 321 319 317 315 311 309 308 308 305 300 288 268 252 244 235
147 163 190 167 111 104 103 100 98 97 95 90 85 83 82 80 80 83 82 79 78 79 79 76 66 61 71 75 67 66 70 63 51 48 44 32 28 24 8 357 2 14 13 3 357 357 355 349 346 345 343 342 342 342 344 346 347 346 343 340 336 334 333 333 334 335 336 335 333 331 329 326 326 328 325 320 318 318 314 306 295 278 259 243 228
146 162 151 110 98 97 98 97 96 93 90 87 85 83 81 80 80 81 80 79 77 75 76 75 67 62 66 67 57 57 67 69 56 44 39 35 33 23 7 2 7 13 11 3 358 356 352 348 348 348 346 345 347 349 350 351 352 352 351 349 348 347 346 347 347 348 349 348 345 342 340 339 341 344 342 338 334 329 323 315 303 282 255 232 218
93 85 90 93 91 88 89 92 92 89 87 85 84 84 86 86 85 83 81 79 77 72 69 67 63 60 61 58 48 47 55 60 53 42 37 36 34 21 6 3 8 11 10 4 359 354 350 348 350 351 351 350 351 353 353 355 357 358 358 358 359 358 357 357 358 358 358 359 359 358 357 357 358 358 358 359 356 348 342 339 325 281 231 206 193
77 76 79 83 83 83 84 86 86 87 88 86 83 83 85 84 82 80 76 72 71 70 67 63 62 64 63 59 53 51 53 54 50 43 37 32 25 16 8 8 12 13 8 2 358 355 353 353 354 355 355 355 355 355 356 358 360 1 2 3 4 4 4 5 6 6 6 9 12 14 13 13 13 13 17 20 21 22 31 43 55 101 140 150 153
75 75 76 76 76 79 81 82 82 83 87 88 85 82 79 77 75 72 70 65 61 57 54 52 54 59 61 58 54 52 52 51 45 38 33 26 18 14 11 11 15 17 12 4 359 359 2 2 360 357 357 359 358 357 358 1 2 2 3 4 5 7 10 12 12 12 13 17 21 24 26 27 27 27 30 34 38 44 56 68 77 92 108 119 127
77 76 76 76 76 77 79 79 78 78 80 84 84 81 77 75 70 67 66 63 56 51 48 46 47 49 51 51 49 48 47 46 42 35 31 24 16 13 11 10 14 20 17 7 2 5 9 8 4 358 358 360 358 356 357 1 3 3 3 4 7 10 14 18 18 17 18 22 27 30 32 35 36 36 38 42 47 53 61 72 81 88 95 102 109
76 77 77 75 75 76 75 74 72 69 67 69 72 74 74 72 68 63 61 60 56 52 49 47 45 46 47 46 46 45 42 39 37 33 30 24 17 12 9 9 12 15 12 6 3 7 9 8 5 2 1 360 356 353 355 359 3 4 5 7 9 11 16 21 24 25 24 26 31 35 37 39 41 42 42 46 51 56 64 73 81 88 93 98 103
Height
780 779 778 778 780 782 785 788 790 792 793 794 795 796 798 799 800 802 803 804 805 806 806 807 808 809 809 810 810 810 811 812 813 813 814 814 815 816 816 816 817 818 818 819 819 820 820 821 821 822 822 823 823 824 824 824 824 824 825 825 825 825 825 825 824 822 821 822 821 820 820 819 818 817 817 816 815 815 814 813 813 812 812 811 810
778 779 779 780 781 782 785 788 790 792 792 794 795 796 797 798 799 801 802 803 804 805 805 806 807 808 808 808 809 809 810 810 811 812 813 813 814 814 815 815 816 817 817 818 818 819 820 820 821 821 821 822 822 823 823 823 824 824 824 824 824 825 825 824 824 823 821 821 820 820 819 818 817 816 816 815 814 813 813 812 811 810 810 809 808
776 777 779 782 783 783 785 787 790 791 791 792 794 795 797 797 798 799 800 802 802 803 804 804 805 805 806 807 807 808 809 809 810 810 811 812 812 813 814 814 815 816 816 816 817 818 819 819 820 820 821 821 822 822 823 823 823 824 824 824 824 824 824 824 824 823 821 820 819 819 818 817 816 815 815 814 813 812 811 810 809 809 808 807 807
777 777 779 782 784 784 785 787 789 790 790 791 792 795 797 798 798 799 800 801 801 802 802 802 802 803 804 805 805 806 807 807 807 808 809 811 812 812 813 813 814 815 815 816 816 817 818 819 819 820 820 821 821 822 822 822 823 823 823 823 824 823 823 823 823 822 821 819 819 818 817 816 815 814 813 812 811 811 810 809 808 807 806 806 805
779 779 780 782 784 785 786 788 789 790 790 790 791 793 795 798 799 800 800 801 801 802 802 801 801 802 802 803 804 804 805 805 805 806 807 809 810 811 812 812 813 814 814 815 816 816 817 818 819 819 819 820 820 821 821 821 821 822 822 822 822 822 822 822 822 821 820 819 818 817 816 816 814 813 812 811 810 809 808 807 806 805 805 804 803
780 780 781 782 783 785 786 788 789 789 789 790 791 792 793 795 798 799 799 799 800 801 800 800 801 802 803 803 804 803 803 804 804 805 805 806 808 809 810 811 812 813 813 814 815 815 815 816 817 818 819 819 820 820 820 820 821 821 821 821 821 821 821 821 821 820 820 818 817 816 815 814 813 812 811 810 809 807 806 805 804 804 803 802 801
781 781 782 782 784 785 786 787 787 787 788 789 790 790 791 793 797 798 797 796 796 797 797 798 800 802 802 803 803 803 803 803 804 805 804 804 805 807 808 809 811 812 812 813 813 814 814 815 816 817 818 818 819 819 819 820 820 820 820 820 820 820 820 820 820 819 818 817 816 815 813 813 812 810 809 809 808 806 805 804 802 802 801 800 799
781 782 782 783 784 784 785 786 786 787 787 788 789 789 789 791 794 795 795 793 792 793 795 796 797 798 798 798 799 800 802 803 804 804 803 803 803 803 805 806 808 810 811 812 812 813 813 814 815 816 817 817 818 818 818 819 819 819 819 819 819 819 819 819 818 818 817 816 815 814 812 812 810 809 808 807 806 805 804 803 801 800 799 798 797
782 782 783 783 784 785 785 786 786 786 786 787 787 788 788 789 790 791 791 790 789 790 792 793 794 794 795 795 796 797 800 803 804 803 802 801 801 801 802 803 805 807 810 811 812 812 813 814 814 815 816 816 817 817 817 818 818 818 818 818 818 818 817 817 817 816 816 815 814 813 811 810 809 808 807 807 805 804 803 802 800 799 798 797 796
782 783 783 783 784 784 785 785 785 786 786 786 787 787 787 788 789 789 788 787 787 788 789 790 791 791 792 792 794 795 796 799 800 801 801 800 800 800 800 801 802 805 808 809 811 811 812 813 813 814 814 815 816 816 816 816 816 816 817 816 817 816 816 816 815 815 815 814 813 812 811 809 809 808 807 806 805 804 802 801 799 798 797 795 794
783 783 783 783 784 784 784 784 785 785 785 786 787 787 787 787 787 787 786 786 787 787 788 788 788 789 789 790 791 793 794 795 796 798 799 799 799 799 799 799 800 803 806 808 809 810 811 812 812 812 813 814 814 814 814 814 814 814 815 815 815 815 815 814 814 814 813 812 811 811 810 808 808 807 807 806 805 803 801 800 799 797 796 794 792
783 783 783 783 783 783 784 784 784 784 785 785 786 786 787 787 786 786 785 785 786 786 787 787 786 786 787 788 789 790 791 792 793 794 795 796 797 798 797 797 798 802 805 807 808 809 810 811 811 811 812 812 812 812 812 812 812 812 813 813 813 813 813 813 812 812 812 811 810 809 808 807 806 806 806 805 803 802 801 800 799 797 796 794 792
782 783 783 783 783 783 783 783 783 784 784 784 785 786 786 787 786 786 785 785 785 785 785 786 786 786 786 786 787 787 788 789 790 792 792 794 795 796 796 796 798 801 804 806 807 808 809 810 810 810 810 811 811 811 811 811 811 811 811 811 811 811 811 811 810 810 809 809 808 807 807 807 805 805 805 804 803 801 800 799 798 797 795 794 791
782 782 782 783 783 783 783 782 782 783 783 783 784 785 786 786 786 786 785 785 785 784 784 784 784 785 785 785 785 786 786 786 788 789 790 791 793 794 795 796 798 801 803 804 806 807 807 808 808 809 809 809 809 809 809 809 809 809 809 809 809 809 809 809 808 808 807 806 805 804 804 805 804 803 803 803 802 801 799 799 798 796 795 793 791
781 781 781 782 782 782 782 782 782 782 782 783 783 784 784 784 785 785 785 785 784 784 783 783 783 783 783 783 784 784 784 785 786 787 788 790 792 792 793 795 798 801 802 803 804 805 806 806 807 807 808 808 807 807 807 807 807 807 807 807 808 808 807 807 806 805 805 804 803 802 802 802 802 801 801 801 800 799 799 797 797 796 794 791 788
780 780 780 781 781 781 780 781 781 781 782 782 782 783 783 782 783 783 783 783 783 782 782 782 781 781 781 781 782 782 782 784 784 785 787 789 791 791 792 794 796 799 801 802 803 804 805 805 806 806 806 806 805 805 806 806 806 806 806 805 805 805 804 804 804 803 803 802 801 800 799 799 799 799 799 799 797 797 796 795 794 794 792 789 786
779 779 780 780 779 780 779 779 780 780 780 781 781 781 781 781 781 781 781 781 781 781 781 780 780 780 779 779 779 780 781 782 783 785 786 788 789 790 792 793 795 798 800 801 802 803 804 804 804 805 805 804 804 804 804 804 804 804 803 803 803 802 802 802 801 801 800 800 799 798 797 797 796 795 795 795 795 795 793 791 791 792 790 786 783
779 779 779 779 779 779 779 779 779 779 779 779 779 779 779 779 779 779 779 779 779 779 779 779 779 778 776 776 776 777 779 781 783 785 786 787 788 790 792 794 796 798 800 801 802 802 803 803 803 803 803 803 802 802 802 802 802 802 802 801 801 800 800 799 799 798 797 796 795 795 794 793 793 792 791 791 791 791 790 787 788 788 786 784 781
778 778 778 778 778 778 778 778 778 778 778 778 778 778 778 778 778 778 778 778 778 778 778 777 776 775 775 775 775 776 778 780 782 784 786 787 789 790 792 794 796 797 799 800 800 801 801 802 802 802 802 801 800 800 800 800 800 800 800 799 799 798 798 797 796 794 794 793 792 791 790 790 789 789 788 788 787 787 786 785 785 785 782 781 780
777 777 777 777 777 777 777 777 777 777 777 777 777 777 777 777 777 777 777 777 777 777 776 775 774 774 775 775 776 777 778 780 782 784 785 787 789 789 790 792 794 796 798 798 799 800 800 801 800 800 800 799 799 799 799 799 799 799 798 798 797 796 796 794 793 792 791 790 789 788 787 787 786 786 785 785 784 784 783 782 782 781 779 778 778
776 776 776 775 776 775 775 775 775 775 775 775 775 775 775 775 776 776 776 776 776 775 774 773 774 774 775 776 777 778 779 780 782 784 785 787 788 788 789 791 794 796 797 798 799 799 800 800 799 799 799 798 798 798 798 798 798 797 796 796 795 794 793 792 790 790 788 787 786 785 784 784 784 783 782 782 781 780 780 779 778 778 777 775 774
774 774 773 773 774 773 773 773 773 773 773 773 773 773 773 774 774 774 775 775 775 774 773 773 774 774 775 776 777 779 780 782 783 785 786 787 788 788 789 791 793 795 796 798 799 799 800 800 798 797 797 797 797 796 796 796 795 794 794 793 792 792 791 789 788 787 786 785 784 783 782 782 781 781 780 779 778 778 777 776 775 775 774 773 772
772 771 771 771 771 771 771 771 771 771 771 771 771 771 771 771 772 772 773 774 773 773 773 774 774 775 776 777 778 780 782 783 784 786 787 788 789 789 790 792 793 795 796 797 797 798 798 798 797 796 796 796 795 795 794 794 793 792 791 791 790 789 789 787 786 785 784 783 782 781 781 780 780 779 778 777 776 776 775 773 773 772 771 770 769
770 769 769 769 769 769 769 769 769 769 769 769 769 768 768 768 769 770 771 772 772 772 773 774 775 776 778 778 779 781 782 784 786 787 788 789 790 790 791 792 793 794 795 796 796 796 797 797 796 795 794 794 794 793 793 792 791 790 790 789 788 788 787 785 784 783 782 781 780 779 778 778 777 776 776 775 774 774 773 771 770 769 768 767 766
767 767 767 766 766 767 766 767 767 767 767 767 767 766 766 766 766 767 769 769 770 771 773 775 775 776 778 779 780 781 783 785 787 787 788 789 790 791 792 793 794 794 795 795 795 795 795 795 794 793 792 792 792 791 791 790 789 789 788 787 786 786 784 783 782 781 780 778 777 777 776 775 775 774 773 772 771 771 770 769 768 767 766 764 763
765 765 765 765 765 765 765 765 765 765 765 765 765 765 764 764 764 765 766 767 769 770 772 774 775 776 778 779 780 782 783 785 787 788 789 790 791 792 792 793 793 794 794 795 795 794 794 793 792 791 791 790 790 789 788 788 788 787 787 786 785 784 783 782 781 780 778 777 775 774 773 772 772 771 770 769 768 768 767 766 765 764 763 762 761
764 764 764 763 763 763 763 762 763 763 763 763 763 763 762 762 763 764 765 766 768 769 772 773 774 776 777 779 781 783 784 786 787 788 789 790 791 792 792 793 793 794 794 794 793 792 792 791 790 790 789 789 788 788 787 787 787 786 786 785 784 783 782 781 780 778 777 775 773 772 771 770 769 768 767 766 765 765 764 763 762 761 761 760 758
762 762 762 762 761 761 761 760 760 761 761 761 760 760 761 761 762 763 764 765 767 768 771 772 773 775 777 779 782 784 785 786 787 788 789 790 791 792 792 793 793 793 793 793 792 791 790 790 789 789 789 788 788 787 786 786 786 785 785 784 784 783 782 780 779 777 776 774 772 770 769 768 767 766 765 764 763 762 762 761 759 758 758 757 755
760 760 760 760 760 760 759 759 759 759 758 758 758 759 760 760 761 763 764 765 766 768 770 772 773 775 777 780 781 783 784 786 787 788 789 790 790 791 791 792 792 792 792 791 790 790 789 789 789 789 788 788 787 786 786 785 785 785 784 783 783 781 780 779 777 776 774 772 771 769 767 766 765 764 762 761 760 759 759 758 757 756 755 754 752
759 759 759 758 758 758 757 757 757 757 756 756 757 758 760 761 762 763 764 765 766 768 770 772 774 776 778 780 781 782 783 785 787 788 789 789 790 790 791 791 792 792 792 791 790 789 789 788 788 788 788 787 786 786 785 785 784 784 783 782 781 779 778 777 775 773 772 771 769 767 766 764 762 761 760 758 757 756 756 755 754 753 752 751 749
759 758 758 757 756 756 756 755 755 754 754 755 756 757 759 762 764 765 765 766 768 770 771 773 775 777 779 781 781 783 784 786 787 788 789 789 790 790 790 791 791 791 791 790 790 789 788 788 788 788 787 787 786 785 785 784 783 782 781 780 779 777 776 774 773 771 770 768 766 765 763 762 760 758 756 755 753 752 752 751 750 749 748 747 746
759 758 757 756 754 754 754 753 752 752 753 755 756 757 758 761 764 766 768 769 770 772 773 775 777 779 780 781 782 783 785 787 788 788 788 789 789 790 790 790 790 790 790 789 789 788 788 788 788 787 787 787 786 785 784 783 782 781 779 778 776 775 774 772 770 769 767 765 763 762 760 758 757 755 753 752 750 749 748 747 746 746 744 743 742
759 758 757 755 754 753 751 751 751 752 754 756 758 759 760 761 763 767 769 771 773 774 776 777 779 780 781 782 783 784 786 787 787 788 788 789 789 789 790 790 789 790 789 788 788 788 788 788 787 787 787 786 786 785 784 783 781 780 779 777 775 773 772 770 768 766 764 762 761 758 756 755 753 751 749 748 747 745 744 743 742 742 741 739 738
759 758 757 756 755 754 753 753 753 755 756 758 760 762 763 764 765 767 769 772 774 776 777 779 780 781 782 783 784 785 786 787 787 788 788 789 789 789 789 788 788 789 789 788 788 788 788 787 787 787 787 786 785 784 783 782 780 779 777 775 774 772 770 768 765 763 761 759 757 755 753 751 749 747 746 744 743 741 740 739 738 737 737 736 734
760 760 759 759 758 757 756 756 757 758 759 761 762 764 765 767 768 769 771 773 775 777 779 780 781 782 783 784 785 786 786 787 787 788 788 789 789 789 788 788 788 788 788 788 788 788 788 788 788 788 787 786 785 784 782 781 779 778 776 774 772 769 767 765 762 760 758 756 754 752 750 748 746 744 742 740 739 737 736 735 734 733 732 732 731
761 761 761 761 761 760 760 760 760 761 762 764 765 766 768 769 771 772 774 775 777 778 779 781 782 783 784 785 785 786 786 787 788 788 788 788 788 788 788 788 788 788 788 788 788 788 788 788 788 787 786 785 784 783 781 780 778 776 774 772 770 767 764 762 759 757 755 753 750 748 746 744 742 740 738 736 734 733 731 730 729 728 728 727 727
763 763 763 763 763 763 763 763 764 765 766 767 768 769 770 771 772 773 775 776 777 778 779 781 782 783 784 785 786 786 786 787 788 788 788 788 788 788 788 788 788 788 788 789 788 788 788 788 787 787 786 785 783 782 780 779 777 775 773 770 767 765 762 759 757 754 752 749 747 745 743 741 738 737 735 732 730 729 727 726 725 724 723 723 722
764 764 764 765 765 765 765 766 767 767 768 769 769 770 771 772 773 774 775 776 776 777 779 780 782 783 784 785 786 786 786 787 787 787 787 788 788 788 788 789 789 789 789 789 788 788 788 787 787 786 785 784 783 781 779 777 775 773 771 768 765 762 759 756 754 751 749 746 744 741 739 737 735 733 731 729 727 725 723 722 721 719 718 718 717
765 765 765 765 766 766 766 767 767 768 768 769 769 770 771 772 773 774 774 775 776 777 779 781 782 783 784 785 786 786 786 786 786 786 787 788 788 789 789 789 789 789 789 789 789 788 788 787 786 786 785 783 782 780 778 776 774 771 769 766 762 759 756 753 751 748 746 743 741 738 736 733 731 729 728 725 723 721 719 718 717 715 714 713 713
765 765 765 765 766 767 767 767 768 768 769 769 770 771 772 772 773 773 774 774 776 778 780 782 782 783 784 785 785 786 786 786 786 787 787 788 789 789 789 789 789 789 789 789 789 788 788 787 786 785 784 783 781 779 777 775 772 769 766 764 760 757 754 751 748 745 743 740 737 735 732 730 727 726 724 722 719 717 716 714 713 711 710 709 709
766 766 766 767 767 768 769 769 770 770 770 770 771 772 772 773 773 773 774 774 776 778 780 781 782 783 784 784 785 785 786 786 786 787 787 788 789 790 790 790 789 789 789 789 789 789 788 787 786 785 783 782 780 778 776 773 771 768 765 762 759 755 752 748 746 743 740 737 734 731 729 726 724 722 720 718 715 714 712 710 709 707 706 706 706
767 768 768 768 769 770 770 770 771 771 771 772 772 773 773 773 774 774 774 775 777 779 780 782 783 784 784 785 785 785 786 786 787 787 788 789 790 790 790 790 790 790 790 790 789 789 788 787 785 784 783 782 780 777 775 772 769 766 763 760 756 753 749 746 743 740 737 734 731 728 725 723 721 718 716 714 712 710 708 706 705 704 703 703 704
768 768 769 769 770 771 771 771 772 772 773 774 774 774 774 775 775 776 776 778 779 780 782 783 784 785 785 786 786 786 786 787 787 788 789 790 790 790 791 791 790 790 790 790 789 789 788 786 785 784 783 781 779 777 774 771 768 765 761 758 755 751 747 744 740 737 734 731 728 725 722 720 717 715 713 710 708 707 705 703 702 701 701 701 701
769 769 770 770 771 772 772 773 773 774 775 775 775 775 776 776 777 778 779 780 781 782 784 785 785 786 786 786 787 787 787 787 788 789 790 791 791 791 791 791 790 790 790 790 789 788 787 786 785 784 782 781 779 776 774 770 767 764 760 756 753 749 746 742 738 735 731 728 725 722 720 717 715 713 710 708 706 704 703 701 700 699 699 699 700
770 770 771 771 772 773 773 774 775 776 776 777 777 778 778 779 779 780 781 782 783 784 785 785 786 786 786 787 787 788 788 788 789 790 791 791 791 791 791 790 790 790 790 790 789 788 787 786 785 783 781 780 778 775 772 769 766 762 759 755 752 748 744 740 737 733 729 726 723 720 718 715 713 711 708 706 704 703 701 700 699 698 698 698 699
771 771 772 772 773 773 774 775 776 777 777 778 779 779 780 780 781 782 783 783 784 785 786 786 787 787 787 788 788 788 788 789 790 791 791 791 791 791 791 790 790 790 790 790 789 788 787 786 784 782 781 779 777 774 771 768 764 761 757 754 751 747 743 739 736 732 728 725 722 720 717 715 712 710 707 705 703 701 700 699 698 697 697 697 698
772 773 773 773 774 774 775 776 777 778 779 780 781 781 782 782 783 783 784 785 786 786 787 787 788 788 788 789 789 789 789 790 791 791 792 791 791 791 791 790 790 790 790 790 789 788 786 785 783 782 780 778 776 774 771 768 764 760 757 753 750 747 743 739 735 732 728 725 722 720 717 714 712 709 707 705 703 701 700 698 698 697 697 697 697
773 774 774 775 776 776 777 778 779 780 781 782 782 783 783 784 784 785 786 786 787 787 788 788 789 789 789 790 790 790 790 790 791 792 792 792 792 791 791 790 790 790 790 789 789 787 786 784 783 781 779 778 776 774 771 767 764 760 757 753 750 747 743 739 735 732 729 726 723 720 717 715 712 710 708 706 704 702 700 699 698 698 697 698 698
775 776 776 777 778 778 779 780 781 782 783 783 784 784 785 785 786 786 787 788 788 788 789 789 789 790 790 790 790 790 790 791 791 792 792 792 792 791 791 790 790 790 789 789 788 787 785 784 782 780 779 778 776 774 771 768 764 761 757 754 751 747 743 740 736 733 730 727 724 721 718 716 714 712 710 707 705 703 702 701 700 700 699 700 700
777 778 779 780 780 781 782 782 783 784 785 785 786 786 787 787 787 788 789 789 789 790 790 790 791 791 791 791 791 791 791 792 792 793 793 792 792 791 791 790 790 789 789 789 788 786 785 783 782 780 779 778 776 774 772 768 765 762 758 755 752 748 744 741 737 735 731 728 726 723 720 718 716 713 712 710 708 706 705 704 703 703 702 703 703
779 780 781 782 782 783 784 784 785 786 787 787 788 788 789 789 789 790 790 791 791 791 792 792 792 792 792 792 792 792 792 792 792 793 793 792 792 791 790 790 790 789 789 789 787 786 784 783 781 780 779 779 777 774 772 769 766 763 759 756 753 749 746 743 740 737 734 731 728 725 723 720 718 716 714 712 711 709 708 707 706 706 706 706 706